Weather History for Price, UT

Change the Weather History Date:

Tuesday, November 6, 2012

  Actual Average Record
Temperature  
Mean Temperature 52 °F -  
Max Temperature 66 °F 47 °F 66 °F (2012)
Min Temperature 39 °F 27 °F 19 °F (1993)
Degree Days  
Heating Degree Days 12    
Growing Degree Days 2 (Base 50)    
Moisture  
Dew Point 22 °F    
Average Humidity 34    
Maximum Humidity 50    
Minimum Humidity 18    
Precipitation  
Precipitation 0.00 in - - ()
Sea Level Pressure  
Sea Level Pressure 30.26 in    
Wind  
Wind Speed 7 mph (ENE)    
Max Wind Speed 10 mph    
Max Gust Speed -    
Visibility 10 miles    
Events      
Averages and records for this station are not official NWS values.
T = Trace of Precipitation, MM = Missing Value Source: NWS Daily Summary

Daily Weather History Graph

Daily Weather History Graph

Search for Another Location

Airport:

Trip Planner

Search our weather history database for the weather conditions in past years. The results will help you decide how hot, cold, wet, or windy it might be!

Date:

Astronomy

Nov. 06, 2012 Rise Set
Actual Time 6:57 AM MST 5:15 PM MST
Civil Twilight 6:29 AM MST 5:43 PM MST
Nautical Twilight 5:57 AM MST 6:15 PM MST
Astronomical Twilight 5:25 AM MST 6:47 PM MST
Moon 11:57 PM MST (11/6) 12:51 PM MST (11/6)
Length of Visible Light 11h 14m
Length of Day
10h 17m
Waning Gibbous, 52% of the Moon is Illuminated
Nov 6
Waning Gibbous
Nov 6
Last Quarter
Nov 13
New
Nov 20
First Quarter
Nov 28
Full

Hourly Weather History & Observations

Time (MST) Temp. Windchill Dew Point Humidity Pressure Visibility Wind Dir Wind Speed Gust Speed Precip Events Conditions
12:53 AM 53.6 °F - 26.6 °F 35% 30.35 in 10.0 mi NNW 10.4 mph - N/A   Clear
1:53 AM 48.9 °F - 24.1 °F 38% 30.24 in 10.0 mi ENE 8.1 mph - N/A   Clear
2:53 AM 43.0 °F - 24.1 °F 47% 30.26 in 10.0 mi Calm Calm - N/A   Clear
3:53 AM 43.0 °F 37.2 °F 23.0 °F 45% 30.25 in 10.0 mi NNE 10.4 mph - N/A   Clear
4:53 AM 39.9 °F 37.8 °F 21.9 °F 49% 30.27 in 10.0 mi ENE 3.5 mph - N/A   Clear
5:53 AM 42.1 °F 36.6 °F 23.0 °F 47% 30.28 in 10.0 mi NNE 9.2 mph - N/A   Clear
6:53 AM 39.0 °F - 21.9 °F 50% 30.33 in 10.0 mi Calm Calm - N/A   Clear
7:53 AM 46.0 °F 43.1 °F 25.0 °F 44% 30.33 in 10.0 mi SE 5.8 mph - N/A   Clear
8:53 AM 53.1 °F - 23.0 °F 31% 30.30 in 10.0 mi East 5.8 mph - N/A   Clear
9:53 AM 55.9 °F - 24.1 °F 29% 30.30 in 10.0 mi SSE 4.6 mph - N/A   Clear
10:53 AM 59.0 °F - 24.1 °F 26% 30.28 in 10.0 mi ESE 5.8 mph - N/A   Clear
11:53 AM 60.1 °F - 24.1 °F 25% 30.24 in 10.0 mi South 5.8 mph - N/A   Clear
12:53 PM 64.0 °F - 21.9 °F 20% 30.19 in 10.0 mi SE 4.6 mph - N/A   Clear
1:53 PM 64.9 °F - 21.0 °F 19% 30.19 in 10.0 mi Calm Calm - N/A   Clear
2:53 PM 66.0 °F - 21.0 °F 18% 30.20 in 10.0 mi South 5.8 mph - N/A   Clear
3:53 PM 66.0 °F - 21.0 °F 18% 30.20 in 10.0 mi SSE 6.9 mph - N/A   Clear
4:53 PM 63.0 °F - 19.9 °F 19% 30.22 in 10.0 mi East 3.5 mph - N/A   Clear
5:53 PM 55.9 °F - 19.0 °F 24% 30.25 in 10.0 mi East 6.9 mph - N/A   Clear
6:53 PM 46.9 °F - 19.0 °F 33% 30.30 in 10.0 mi NNE 9.2 mph - N/A   Clear
7:53 PM 46.0 °F 41.9 °F 19.9 °F 35% 30.28 in 10.0 mi North 8.1 mph - N/A   Clear
8:53 PM 44.1 °F 39.0 °F 19.9 °F 38% 30.25 in 10.0 mi North 9.2 mph - N/A   Clear
9:53 PM 44.1 °F 39.0 °F 19.9 °F 38% 30.24 in 10.0 mi North 9.2 mph - N/A   Clear
10:53 PM 42.1 °F 36.6 °F 19.9 °F 41% 30.22 in 10.0 mi North 9.2 mph - N/A   Clear
11:53 PM 41.0 °F 35.8 °F 19.0 °F 41% 30.22 in 10.0 mi NNE 8.1 mph - N/A   Clear